Terminal Aerodrome Forecast
Issued by NWS

Home | Current Version | Previous Version | Graphics & Text | Print | Product List | Glossary On
Versions: 1 2 3 4 5 6 7 8 9 10 11 12 13 14 15 16 17 18
000
FTUS43 KOAX 300800 AAA
TAFCDR
TAF AMD
KCDR 300803Z 3008/0106 VRB05KT 5SM -RA OVC015
     FM301500 27028G38KT P6SM BKN025 OVC050
     FM302200 28015G22KT P6SM SCT050 BKN100=

USA.gov is the U.S. government's official web portal to all federal, state and local government web resources and services.